Weather History for Buffalo, WY

Change the Weather History Date:

Wednesday, May 22, 2013

  Actual Average Record
Temperature  
Mean Temperature 51 °F 53 °F  
Max Temperature 61 °F 65 °F 87 °F (2006)
Min Temperature 41 °F 42 °F 31 °F (2002)
Degree Days  
Heating Degree Days 14 12  
Month to date heating degree days 246 314  
Since 1 July heating degree days 6951 7158  
Cooling Degree Days 0 0  
Month to date cooling degree days 10 0  
Year to date cooling degree days 10 0  
Growing Degree Days 1 (Base 50)    
Moisture  
Dew Point 41 °F    
Average Humidity 70    
Maximum Humidity 89    
Minimum Humidity 51    
Precipitation  
Precipitation 0.00 in 0.09 in 3.32 in (2008)
Month to date precipitation 1.34 1.81  
Year to date precipitation 2.86 4.80  
Sea Level Pressure  
Sea Level Pressure 29.96 in    
Wind  
Wind Speed 10 mph (SE)    
Max Wind Speed 26 mph    
Max Gust Speed 33 mph    
Visibility 10 miles    
Events      
T = Trace of Precipitation, MM = Missing Value Source: NWS Daily Summary

Daily Weather History Graph

Daily Weather History Graph

Search for Another Location

Airport:

Trip Planner

Search our weather history database for the weather conditions in past years. The results will help you decide how hot, cold, wet, or windy it might be!

Date:

Astronomy

May. 22, 2013 Rise Set
Actual Time 5:32 AM MDT 8:35 PM MDT
Civil Twilight 4:57 AM MDT 9:10 PM MDT
Nautical Twilight 4:13 AM MDT 9:54 PM MDT
Astronomical Twilight 3:20 AM MDT 10:47 PM MDT
Moon 5:55 PM MDT (5/22) 3:44 AM MDT (5/22)
Length of Visible Light 16h 12m
Length of Day
15h 02m
Waxing Gibbous, 92% of the Moon is Illuminated
May 22
Waxing Gibbous
May 24
Full
May 31
Last Quarter
Jun 8
New
Jun 16
First Quarter

Hourly Weather History & Observations

Time (MDT) Temp. Windchill Dew Point Humidity Pressure Visibility Wind Dir Wind Speed Gust Speed Precip Events Conditions
12:53 AM 45.0 °F - 39.9 °F 82% 29.93 in 10.0 mi Calm Calm - N/A   Overcast
1:53 AM 44.1 °F 42.5 °F 39.9 °F 85% 29.91 in 10.0 mi ESE 3.5 mph - N/A   Overcast
2:34 AM 44.6 °F 41.4 °F 41.0 °F 87% 29.98 in 10.0 mi ESE 5.8 mph - N/A   Overcast
2:45 AM 44.6 °F 40.7 °F 41.0 °F 87% 29.98 in 10.0 mi ESE 6.9 mph - N/A   Overcast
2:53 AM 43.0 °F 38.8 °F 39.9 °F 89% 29.90 in 10.0 mi ESE 6.9 mph - N/A   Overcast
3:53 AM 43.0 °F 39.5 °F 39.9 °F 89% 29.91 in 10.0 mi ESE 5.8 mph - N/A   Overcast
4:12 AM 42.8 °F 41.1 °F 39.2 °F 87% 29.98 in 10.0 mi ESE 3.5 mph - N/A   Overcast
4:53 AM 42.1 °F 38.4 °F 39.9 °F 92% 29.91 in 10.0 mi SE 5.8 mph - N/A   Overcast
5:08 AM 42.8 °F 40.1 °F 39.2 °F 87% 29.97 in 10.0 mi SE 4.6 mph - N/A   Overcast
5:32 AM 42.8 °F 38.0 °F 39.2 °F 87% 29.96 in 8.0 mi SE 8.1 mph - N/A   Overcast
5:48 AM 42.8 °F 39.3 °F 39.2 °F 87% 29.96 in 7.0 mi SE 5.8 mph - N/A   Overcast
5:53 AM 42.1 °F 39.2 °F 39.9 °F 92% 29.90 in 6.0 mi ESE 4.6 mph - N/A   Overcast
6:53 AM 42.1 °F 37.7 °F 39.9 °F 92% 29.93 in 6.0 mi SSE 6.9 mph - N/A   Overcast
7:53 AM 44.1 °F 39.5 °F 39.9 °F 85% 29.95 in 10.0 mi SSE 8.1 mph - N/A   Overcast
8:10 AM 44.6 °F 40.2 °F 39.2 °F 81% 29.99 in 10.0 mi South 8.1 mph - N/A   Overcast
8:48 AM 46.4 °F 41.9 °F 39.2 °F 76% 30.00 in 10.0 mi SSE 9.2 mph - N/A   Overcast
8:53 AM 46.9 °F - 39.0 °F 74% 29.95 in 10.0 mi SE 8.1 mph - N/A   Overcast
9:42 AM 48.2 °F - 39.2 °F 71% 30.00 in 10.0 mi SE 6.9 mph - N/A   Mostly Cloudy
9:53 AM 48.9 °F - 39.0 °F 69% 29.96 in 10.0 mi SSE 9.2 mph - N/A   Mostly Cloudy
10:53 AM 52.0 °F - 39.9 °F 63% 29.96 in 10.0 mi ESE 9.2 mph - N/A   Mostly Cloudy
11:29 AM 53.6 °F - 41.0 °F 62% 30.00 in 10.0 mi ESE 8.1 mph - N/A   Scattered Clouds
11:51 AM 53.6 °F - 39.2 °F 58% 30.00 in 10.0 mi ESE 12.7 mph - N/A   Mostly Cloudy
11:53 AM 55.0 °F - 39.9 °F 57% 29.95 in 10.0 mi SE 11.5 mph 17.3 mph N/A   Mostly Cloudy
12:20 PM 55.4 °F - 39.2 °F 54% 30.01 in 10.0 mi ESE 11.5 mph - N/A   Scattered Clouds
12:53 PM 55.0 °F - 41.0 °F 59% 29.94 in 10.0 mi SE 9.2 mph - N/A   Scattered Clouds
1:53 PM 57.0 °F - 39.9 °F 53% 29.94 in 10.0 mi ESE 9.2 mph 17.3 mph N/A   Clear
2:53 PM 57.9 °F - 41.0 °F 53% 29.93 in 10.0 mi SSE 12.7 mph - N/A   Scattered Clouds
3:53 PM 59.0 °F - 41.0 °F 51% 29.93 in 10.0 mi SSE 9.2 mph - N/A   Scattered Clouds
5:53 PM 60.1 °F - 43.0 °F 53% 29.91 in 10.0 mi ESE 11.5 mph - N/A   Mostly Cloudy
6:53 PM 57.0 °F - 45.0 °F 64% 29.92 in 10.0 mi East 9.2 mph - N/A   Overcast
7:53 PM 54.0 °F - 44.1 °F 69% 29.95 in 10.0 mi East 11.5 mph - N/A   Overcast
8:53 PM 53.1 °F - 44.1 °F 71% 29.96 in 10.0 mi SE 8.1 mph - N/A   Overcast
9:01 PM 53.6 °F - 44.6 °F 72% 30.02 in 10.0 mi SE 9.2 mph - N/A   Overcast
9:28 PM 53.6 °F - 44.6 °F 72% 30.01 in 10.0 mi SE 10.4 mph - N/A   Overcast
9:53 PM 52.0 °F - 43.0 °F 71% 29.96 in 10.0 mi SSE 9.2 mph - N/A   Overcast
10:53 PM 51.1 °F - 42.1 °F 71% 29.97 in 10.0 mi South 21.9 mph 27.6 mph N/A   Mostly Cloudy
11:53 PM 48.9 °F - 41.0 °F 74% 29.98 in 10.0 mi SSE 20.7 mph 29.9 mph N/A   Overcast